Time,TemperatureF,DewpointF,PressureIn,WindDirection,WindDirectionDegrees,WindSpeedMPH,WindSpeedGustMPH,Humidity,HourlyPrecipIn,Conditions,Clouds,dailyrainin,SoftwareType,DateUTC
2013-06-19 00:00:00,59.7,58.0,29.84,NNE,27,0.0,5.0,94,0.02,,,0.06,weatherlink.com 1.10,2013-06-19 04:00:00,
2013-06-19 00:15:00,59.5,58.0,29.84,NE,56,2.0,4.0,94,0.02,,,0.07,weatherlink.com 1.10,2013-06-19 04:15:00,
2013-06-19 00:30:00,59.4,58.0,29.84,NW,326,0.0,5.0,94,0.01,,,0.00,weatherlink.com 1.10,2013-06-19 04:30:00,
2013-06-19 00:45:00,59.3,58.0,29.84,NNW,345,0.0,5.0,95,0.01,,,0.00,weatherlink.com 1.10,2013-06-19 04:45:00,
2013-06-19 01:00:00,59.2,58.0,29.84,NNW,347,0.0,6.0,95,0.00,,,0.00,weatherlink.com 1.10,2013-06-19 05:00:00,
2013-06-19 01:15:00,59.1,58.0,29.84,NNW,332,3.0,5.0,95,0.00,,,0.00,weatherlink.com 1.10,2013-06-19 05:15:00,
2013-06-19 01:30:00,59.1,58.0,29.84,NNE,23,2.0,6.0,95,0.00,,,0.00,weatherlink.com 1.10,2013-06-19 05:30:00,
2013-06-19 01:45:00,59.0,58.0,29.84,North,357,0.0,4.0,95,0.01,,,0.01,weatherlink.com 1.10,2013-06-19 05:45:00,
2013-06-19 02:00:00,58.8,57.0,29.84,NW,311,4.0,4.0,95,0.01,,,0.01,weatherlink.com 1.10,2013-06-19 06:00:00,
2013-06-19 02:15:00,58.6,57.0,29.84,NNW,333,0.0,7.0,95,0.01,,,0.01,weatherlink.com 1.10,2013-06-19 06:15:00,
2013-06-19 02:30:00,58.4,57.0,29.84,North,354,0.0,7.0,95,0.00,,,0.01,weatherlink.com 1.10,2013-06-19 06:30:00,
2013-06-19 02:45:00,58.3,57.0,29.84,NNW,335,1.0,5.0,95,0.00,,,0.01,weatherlink.com 1.10,2013-06-19 06:45:00,
2013-06-19 03:00:00,58.2,57.0,29.84,NNW,335,2.0,7.0,95,0.00,,,0.01,weatherlink.com 1.10,2013-06-19 07:00:00,
2013-06-19 03:15:00,58.1,57.0,29.84,NNE,20,1.0,5.0,95,0.00,,,0.01,weatherlink.com 1.10,2013-06-19 07:15:00,
2013-06-19 03:30:00,58.0,57.0,29.84,ENE,58,1.0,8.0,95,0.00,,,0.01,weatherlink.com 1.10,2013-06-19 07:30:00,
2013-06-19 03:45:00,58.1,57.0,29.85,North,349,0.0,5.0,95,0.00,,,0.01,weatherlink.com 1.10,2013-06-19 07:45:00,
2013-06-19 04:00:00,58.1,57.0,29.85,North,6,1.0,5.0,95,0.00,,,0.01,weatherlink.com 1.10,2013-06-19 08:00:00,
2013-06-19 04:15:00,58.1,57.0,29.85,NNE,29,0.0,6.0,95,0.00,,,0.01,weatherlink.com 1.10,2013-06-19 08:15:00,
2013-06-19 04:30:00,58.0,56.0,29.85,North,355,1.0,5.0,94,0.00,,,0.01,weatherlink.com 1.10,2013-06-19 08:30:00,
2013-06-19 04:45:00,57.7,56.0,29.85,NNE,16,0.0,3.0,94,0.00,,,0.01,weatherlink.com 1.10,2013-06-19 08:45:00,
2013-06-19 05:00:00,57.6,56.0,29.85,NE,49,3.0,5.0,94,0.00,,,0.01,weatherlink.com 1.10,2013-06-19 09:00:00,
2013-06-19 05:15:00,57.5,56.0,29.86,NNE,25,0.0,4.0,94,0.00,,,0.01,weatherlink.com 1.10,2013-06-19 09:15:00,
2013-06-19 05:30:00,57.6,56.0,29.86,ENE,77,0.0,3.0,94,0.00,,,0.01,weatherlink.com 1.10,2013-06-19 09:30:00,
2013-06-19 05:45:00,57.7,56.0,29.86,NE,37,0.0,6.0,94,0.00,,,0.01,weatherlink.com 1.10,2013-06-19 09:45:00,
2013-06-19 06:00:00,57.7,56.0,29.86,ENE,73,0.0,5.0,93,0.00,,,0.01,weatherlink.com 1.10,2013-06-19 10:00:00,
2013-06-19 06:15:00,57.8,56.0,29.87,NE,44,1.0,7.0,92,0.00,,,0.01,weatherlink.com 1.10,2013-06-19 10:15:00,
2013-06-19 06:30:00,58.0,55.0,29.87,NNE,32,0.0,7.0,91,0.00,,,0.01,weatherlink.com 1.10,2013-06-19 10:30:00,
2013-06-19 06:45:00,58.1,55.0,29.88,North,354,0.0,6.0,90,0.00,,,0.01,weatherlink.com 1.10,2013-06-19 10:45:00,
2013-06-19 07:00:00,58.3,56.0,29.89,NNW,331,0.0,4.0,90,0.00,,,0.01,weatherlink.com 1.10,2013-06-19 11:00:00,
2013-06-19 07:15:00,58.8,55.0,29.90,NNW,338,1.0,5.0,88,0.00,,,0.01,weatherlink.com 1.10,2013-06-19 11:15:00,
2013-06-19 07:30:00,59.7,56.0,29.90,NE,53,1.0,10.0,86,0.00,,,0.01,weatherlink.com 1.10,2013-06-19 11:30:00,
2013-06-19 07:45:00,60.8,55.0,29.91,NNW,340,0.0,5.0,82,0.00,,,0.01,weatherlink.com 1.10,2013-06-19 11:45:00,
2013-06-19 08:00:00,61.5,55.0,29.92,ENE,77,3.0,6.0,80,0.00,,,0.01,weatherlink.com 1.10,2013-06-19 12:00:00,
2013-06-19 08:16:00,62.7,55.0,29.92,North,5,1.0,7.0,77,0.00,,,0.01,weatherlink.com 1.10,2013-06-19 12:16:00,
2013-06-19 08:31:00,63.6,57.0,29.93,NE,42,0.0,7.0,78,0.00,,,0.01,weatherlink.com 1.10,2013-06-19 12:31:00,
2013-06-19 08:46:00,64.0,56.0,29.93,NE,56,0.0,6.0,75,0.00,,,0.01,weatherlink.com 1.10,2013-06-19 12:46:00,
2013-06-19 09:01:00,65.1,58.0,29.93,North,354,1.0,7.0,77,0.00,,,0.01,weatherlink.com 1.10,2013-06-19 13:01:00,
2013-06-19 09:16:00,66.7,57.0,29.94,NNE,18,0.0,5.0,72,0.00,,,0.01,weatherlink.com 1.10,2013-06-19 13:16:00,
2013-06-19 09:31:00,68.0,57.0,29.94,North,360,0.0,8.0,69,0.00,,,0.01,weatherlink.com 1.10,2013-06-19 13:31:00,
2013-06-19 09:46:00,68.9,57.0,29.95,NNE,24,3.0,7.0,67,0.00,,,0.01,weatherlink.com 1.10,2013-06-19 13:46:00,
2013-06-19 10:01:00,69.6,57.0,29.95,NE,44,0.0,7.0,65,0.00,,,0.01,weatherlink.com 1.10,2013-06-19 14:01:00,
2013-06-19 10:16:00,70.4,56.0,29.96,NE,53,0.0,8.0,61,0.00,,,0.01,weatherlink.com 1.10,2013-06-19 14:16:00,
2013-06-19 10:31:00,71.3,56.0,29.96,NNW,342,1.0,7.0,59,0.00,,,0.01,weatherlink.com 1.10,2013-06-19 14:31:00,
2013-06-19 10:46:00,71.9,56.0,29.96,North,1,5.0,7.0,57,0.00,,,0.01,weatherlink.com 1.10,2013-06-19 14:46:00,
2013-06-19 11:01:00,72.5,57.0,29.96,NNW,339,0.0,8.0,59,0.00,,,0.01,weatherlink.com 1.10,2013-06-19 15:01:00,
2013-06-19 11:16:00,73.0,58.0,29.96,NNE,22,1.0,6.0,59,0.00,,,0.01,weatherlink.com 1.10,2013-06-19 15:16:00,
2013-06-19 11:31:00,73.4,57.0,29.96,NE,50,2.0,8.0,57,0.00,,,0.01,weatherlink.com 1.10,2013-06-19 15:31:00,
2013-06-19 12:01:00,74.6,58.0,29.96,East,80,1.0,7.0,56,0.00,,,0.01,weatherlink.com 1.10,2013-06-19 16:01:00,
2013-06-19 12:16:00,75.5,57.0,29.97,North,354,0.0,6.0,52,0.00,,,0.01,weatherlink.com 1.10,2013-06-19 16:16:00,
2013-06-19 12:31:00,75.1,57.0,29.97,NNW,330,1.0,4.0,53,0.00,,,0.01,weatherlink.com 1.10,2013-06-19 16:31:00,
2013-06-19 12:46:00,76.0,55.0,29.97,NNE,33,0.0,6.0,49,0.00,,,0.01,weatherlink.com 1.10,2013-06-19 16:46:00,
2013-06-19 13:01:00,76.0,55.0,29.97,East,80,4.0,8.0,48,0.00,,,0.01,weatherlink.com 1.10,2013-06-19 17:01:00,
2013-06-19 13:16:00,76.8,56.0,29.97,NNW,344,0.0,6.0,49,0.00,,,0.01,weatherlink.com 1.10,2013-06-19 17:16:00,
2013-06-19 13:31:00,77.3,52.0,29.97,NNE,15,0.0,9.0,42,0.00,,,0.01,weatherlink.com 1.10,2013-06-19 17:31:00,
2013-06-19 13:46:00,76.6,52.0,29.98,East,80,2.0,4.0,43,0.00,,,0.01,weatherlink.com 1.10,2013-06-19 17:46:00,
2013-06-19 14:01:00,77.4,52.0,29.98,NW,326,0.0,9.0,41,0.00,,,0.01,weatherlink.com 1.10,2013-06-19 18:01:00,
2013-06-19 14:16:00,76.6,51.0,29.98,NNW,347,0.0,5.0,41,0.00,,,0.01,weatherlink.com 1.10,2013-06-19 18:16:00,
2013-06-19 14:31:00,76.3,51.0,29.99,West,269,0.0,7.0,41,0.00,,,0.01,weatherlink.com 1.10,2013-06-19 18:31:00,
2013-06-19 14:47:00,77.3,51.0,29.99,NNW,327,0.0,7.0,40,0.00,,,0.01,weatherlink.com 1.10,2013-06-19 18:47:00,
2013-06-19 15:02:00,77.7,55.0,30.00,NNE,27,1.0,5.0,45,0.00,,,0.01,weatherlink.com 1.10,2013-06-19 19:02:00,
2013-06-19 15:17:00,79.0,51.0,30.00,ESE,110,0.0,5.0,37,0.00,,,0.01,weatherlink.com 1.10,2013-06-19 19:17:00,
2013-06-19 15:32:00,78.2,53.0,30.00,North,11,0.0,7.0,41,0.00,,,0.01,weatherlink.com 1.10,2013-06-19 19:32:00,
2013-06-19 15:47:00,77.5,54.0,30.00,East,83,1.0,6.0,44,0.00,,,0.01,weatherlink.com 1.10,2013-06-19 19:47:00,
2013-06-19 16:02:00,78.7,52.0,30.00,NE,54,0.0,3.0,40,0.00,,,0.01,weatherlink.com 1.10,2013-06-19 20:02:00,
2013-06-19 16:17:00,78.0,52.0,30.01,NW,325,0.0,3.0,40,0.00,,,0.01,weatherlink.com 1.10,2013-06-19 20:17:00,
2013-06-19 16:32:00,77.7,53.0,30.01,North,6,1.0,6.0,43,0.00,,,0.01,weatherlink.com 1.10,2013-06-19 20:32:00,
2013-06-19 16:47:00,77.8,53.0,30.01,ENE,65,3.0,5.0,42,0.00,,,0.01,weatherlink.com 1.10,2013-06-19 20:47:00,
2013-06-19 17:02:00,77.9,51.0,30.01,North,5,2.0,5.0,39,0.00,,,0.01,weatherlink.com 1.10,2013-06-19 21:02:00,
2013-06-19 17:17:00,77.2,51.0,30.01,ENE,70,0.0,3.0,40,0.00,,,0.01,weatherlink.com 1.10,2013-06-19 21:17:00,
2013-06-19 17:32:00,76.9,50.0,30.01,NNE,13,1.0,6.0,39,0.00,,,0.01,weatherlink.com 1.10,2013-06-19 21:32:00,
2013-06-19 17:47:00,76.6,52.0,30.01,East,80,3.0,5.0,43,0.00,,,0.01,weatherlink.com 1.10,2013-06-19 21:47:00,
2013-06-19 18:02:00,73.3,51.0,30.02,East,91,5.0,9.0,46,0.00,,,0.01,weatherlink.com 1.10,2013-06-19 22:02:00,
2013-06-19 18:17:00,71.5,50.0,30.02,SE,134,3.0,10.0,46,0.00,,,0.01,weatherlink.com 1.10,2013-06-19 22:17:00,
2013-06-19 18:32:00,70.2,50.0,30.03,ENE,68,3.0,8.0,49,0.00,,,0.01,weatherlink.com 1.10,2013-06-19 22:32:00,
2013-06-19 18:47:00,69.2,50.0,30.04,East,82,5.0,6.0,50,0.00,,,0.01,weatherlink.com 1.10,2013-06-19 22:47:00,
2013-06-19 19:02:00,68.7,48.0,30.04,ESE,105,1.0,4.0,48,0.00,,,0.01,weatherlink.com 1.10,2013-06-19 23:02:00,
2013-06-19 19:17:00,68.3,50.0,30.05,SW,224,0.0,2.0,53,0.00,,,0.01,weatherlink.com 1.10,2013-06-19 23:17:00,
2013-06-19 19:32:00,67.7,50.0,30.06,SW,220,0.0,2.0,54,0.00,,,0.01,weatherlink.com 1.10,2013-06-19 23:32:00,
2013-06-19 19:47:00,66.7,53.0,30.06,SW,216,0.0,3.0,62,0.00,,,0.01,weatherlink.com 1.10,2013-06-19 23:47:00,
2013-06-19 20:02:00,65.7,54.0,30.06,WSW,248,0.0,2.0,67,0.00,,,0.01,weatherlink.com 1.10,2013-06-20 00:02:00,
2013-06-19 20:17:00,64.8,56.0,30.07,WSW,237,0.0,2.0,72,0.00,,,0.01,weatherlink.com 1.10,2013-06-20 00:17:00,
2013-06-19 20:32:00,64.0,56.0,30.07,SW,224,0.0,0.0,76,0.00,,,0.01,weatherlink.com 1.10,2013-06-20 00:32:00,
2013-06-19 20:47:00,63.4,56.0,30.08,SW,224,0.0,0.0,78,0.00,,,0.01,weatherlink.com 1.10,2013-06-20 00:47:00,
2013-06-19 21:02:00,62.8,57.0,30.09,SW,224,0.0,0.0,80,0.00,,,0.01,weatherlink.com 1.10,2013-06-20 01:02:00,
2013-06-19 21:17:00,62.2,56.0,30.09,SW,224,0.0,0.0,81,0.00,,,0.01,weatherlink.com 1.10,2013-06-20 01:17:00,
2013-06-19 21:47:00,61.1,56.0,30.11,SW,224,0.0,0.0,84,0.00,,,0.01,weatherlink.com 1.10,2013-06-20 01:47:00,
2013-06-19 22:02:00,60.7,57.0,30.12,SW,224,0.0,0.0,86,0.00,,,0.01,weatherlink.com 1.10,2013-06-20 02:02:00,
2013-06-19 22:17:00,60.3,57.0,30.12,SW,224,0.0,0.0,87,0.00,,,0.01,weatherlink.com 1.10,2013-06-20 02:17:00,
2013-06-19 22:32:00,60.0,57.0,30.12,SW,224,0.0,0.0,88,0.00,,,0.01,weatherlink.com 1.10,2013-06-20 02:32:00,
2013-06-19 22:47:00,59.8,56.0,30.12,SW,224,0.0,0.0,88,0.00,,,0.01,weatherlink.com 1.10,2013-06-20 02:47:00,
2013-06-19 23:02:00,59.6,56.0,30.12,SW,223,0.0,1.0,87,0.00,,,0.01,weatherlink.com 1.10,2013-06-20 03:02:00,
2013-06-19 23:17:00,59.3,56.0,30.13,SW,223,0.0,0.0,87,0.00,,,0.01,weatherlink.com 1.10,2013-06-20 03:17:00,
2013-06-19 23:32:00,59.1,56.0,30.13,SW,223,0.0,0.0,88,0.00,,,0.01,weatherlink.com 1.10,2013-06-20 03:32:00,
2013-06-19 23:47:00,58.8,56.0,30.13,SW,223,0.0,0.0,89,0.00,,,0.01,weatherlink.com 1.10,2013-06-20 03:47:00,